TimeEST,TemperatureF,Dew PointF,Humidity,Sea Level PressureIn,VisibilityMPH,Wind Direction,Wind SpeedMPH,Gust SpeedMPH,PrecipitationIn,Events,Conditions,WindDirDegrees,DateUTC
12:15 AM,57.6,51.1,79,30.17,10.0,Calm,Calm,-,N/A,,Overcast,0,2012-12-05 05:15:00
12:35 AM,58.1,51.3,78,30.17,10.0,Calm,Calm,-,N/A,,Overcast,0,2012-12-05 05:35:00
12:55 AM,57.6,51.3,79,30.17,10.0,Calm,Calm,-,N/A,,Overcast,0,2012-12-05 05:55:00
1:15 AM,57.2,51.1,80,30.16,10.0,Calm,Calm,-,N/A,,Overcast,0,2012-12-05 06:15:00
1:35 AM,57.6,51.3,79,30.16,10.0,West,3.5,-,N/A,,Overcast,270,2012-12-05 06:35:00
1:55 AM,55.8,51.1,84,30.16,10.0,Calm,Calm,-,N/A,,Overcast,0,2012-12-05 06:55:00
2:15 AM,56.8,51.3,82,30.16,10.0,Calm,Calm,-,N/A,,Overcast,0,2012-12-05 07:15:00
2:35 AM,57.4,51.8,82,30.16,10.0,WSW,4.6,-,N/A,,Overcast,250,2012-12-05 07:35:00
2:55 AM,58.1,51.8,80,30.16,10.0,WSW,5.8,-,N/A,,Overcast,250,2012-12-05 07:55:00
3:15 AM,58.3,52.7,82,30.16,10.0,West,5.8,-,N/A,,Overcast,260,2012-12-05 08:15:00
3:35 AM,57.4,54.3,90,30.16,10.0,WSW,10.4,-,N/A,Rain,Rain,250,2012-12-05 08:35:00
3:55 AM,56.3,56.1,99,30.16,5.0,West,6.9,-,0.01,Rain,Light Rain,260,2012-12-05 08:55:00
4:15 AM,55.4,55.4,100,30.15,5.0,West,4.6,-,0.01,Rain,Rain,260,2012-12-05 09:15:00
4:35 AM,55.4,55.4,100,30.16,3.0,Calm,Calm,-,0.04,Rain,Rain,0,2012-12-05 09:35:00
4:55 AM,55.2,55.2,100,30.16,3.0,West,3.5,-,0.07,,Drizzle,280,2012-12-05 09:55:00
5:15 AM,54.5,54.5,100,30.16,5.0,NNW,9.2,-,0.02,Rain,Light Rain,330,2012-12-05 10:15:00
5:35 AM,53.4,53.1,99,30.16,10.0,North,8.1,-,0.02,,Overcast,350,2012-12-05 10:35:00
5:55 AM,52.9,52.7,99,30.17,10.0,Calm,Calm,-,0.02,,Overcast,0,2012-12-05 10:55:00
6:15 AM,52.7,52.7,100,30.18,7.0,North,4.6,-,N/A,,Light Drizzle,350,2012-12-05 11:15:00
6:35 AM,51.1,50.4,97,30.19,4.0,North,6.9,-,0.02,Rain,Rain,350,2012-12-05 11:35:00
6:55 AM,50.0,49.1,97,30.20,10.0,North,8.1,-,0.03,Rain,Light Rain,350,2012-12-05 11:55:00
7:15 AM,49.1,47.7,95,30.22,10.0,North,5.8,-,N/A,,Light Drizzle,360,2012-12-05 12:15:00
7:35 AM,48.6,46.8,93,30.23,10.0,Calm,Calm,-,N/A,,Overcast,0,2012-12-05 12:35:00
7:55 AM,49.1,48.4,97,30.24,10.0,SE,3.5,-,N/A,,Overcast,130,2012-12-05 12:55:00
9:55 AM,49.3,39.9,70,30.26,10.0,East,4.6,-,N/A,,Overcast,80,2012-12-05 14:55:00
10:15 AM,49.3,40.1,71,30.26,10.0,East,3.5,-,N/A,,Overcast,80,2012-12-05 15:15:00
10:35 AM,49.6,40.6,71,30.26,10.0,Calm,Calm,-,N/A,,Overcast,0,2012-12-05 15:35:00
10:55 AM,50.4,40.5,69,30.26,10.0,Calm,Calm,-,N/A,,Overcast,0,2012-12-05 15:55:00
11:15 AM,51.1,40.8,68,30.26,10.0,Calm,Calm,-,N/A,,Mostly Cloudy,0,2012-12-05 16:15:00
11:35 AM,52.3,42.4,69,30.26,10.0,Calm,Calm,-,N/A,,Clear,0,2012-12-05 16:35:00
11:55 AM,53.6,41.5,64,30.25,10.0,Calm,Calm,-,N/A,,Clear,0,2012-12-05 16:55:00
12:15 PM,54.0,39.7,59,30.25,10.0,Calm,Calm,-,N/A,,Clear,0,2012-12-05 17:15:00
12:35 PM,55.4,40.3,57,30.24,10.0,East,4.6,-,N/A,,Clear,80,2012-12-05 17:35:00
12:55 PM,55.2,39.2,55,30.24,10.0,NW,4.6,-,N/A,,Clear,320,2012-12-05 17:55:00
1:15 PM,55.6,39.6,55,30.24,10.0,NNW,6.9,-,N/A,,Clear,340,2012-12-05 18:15:00
1:35 PM,55.6,39.6,55,30.23,10.0,NNW,3.5,-,N/A,,Clear,340,2012-12-05 18:35:00
1:55 PM,56.1,38.8,52,30.23,10.0,Calm,Calm,-,N/A,,Clear,0,2012-12-05 18:55:00
2:15 PM,56.5,38.1,50,30.22,10.0,Calm,Calm,-,N/A,,Clear,0,2012-12-05 19:15:00
2:35 PM,57.0,32.5,40,30.22,10.0,ENE,5.8,-,N/A,,Clear,60,2012-12-05 19:35:00
2:55 PM,56.7,33.3,41,30.22,10.0,ENE,5.8,-,N/A,,Clear,60,2012-12-05 19:55:00
3:15 PM,56.7,32.7,40,30.22,10.0,Calm,Calm,-,N/A,,Clear,0,2012-12-05 20:15:00
3:35 PM,56.7,33.3,41,30.22,10.0,Calm,Calm,-,N/A,,Clear,0,2012-12-05 20:35:00
3:55 PM,56.5,32.9,41,30.22,10.0,Calm,Calm,-,N/A,,Clear,0,2012-12-05 20:55:00
4:15 PM,55.9,31.6,40,30.22,10.0,Calm,Calm,-,N/A,,Clear,0,2012-12-05 21:15:00
4:35 PM,55.4,32.0,41,30.22,10.0,ENE,3.5,-,N/A,,Clear,60,2012-12-05 21:35:00
4:55 PM,54.9,30.9,40,30.22,10.0,Calm,Calm,-,N/A,,Clear,0,2012-12-05 21:55:00
5:15 PM,53.2,31.3,43,30.23,10.0,Calm,Calm,-,N/A,,Clear,0,2012-12-05 22:15:00
5:35 PM,50.4,32.5,50,30.23,10.0,Calm,Calm,-,N/A,,Clear,0,2012-12-05 22:35:00
5:55 PM,47.7,32.7,56,30.23,10.0,Calm,Calm,-,N/A,,Clear,0,2012-12-05 22:55:00
6:15 PM,46.6,32.0,57,30.24,10.0,Calm,Calm,-,N/A,,Clear,0,2012-12-05 23:15:00
6:35 PM,43.3,32.7,66,30.24,10.0,Calm,Calm,-,N/A,,Clear,0,2012-12-05 23:35:00
6:55 PM,43.0,32.4,66,30.24,10.0,Calm,Calm,-,N/A,,Clear,0,2012-12-05 23:55:00
7:15 PM,43.5,32.4,65,30.23,10.0,Calm,Calm,-,N/A,,Clear,0,2012-12-06 00:15:00
7:35 PM,41.7,32.2,69,30.24,10.0,Calm,Calm,-,N/A,,Clear,0,2012-12-06 00:35:00
7:55 PM,41.0,32.5,72,30.24,10.0,Calm,Calm,-,N/A,,Clear,0,2012-12-06 00:55:00
8:15 PM,40.5,32.4,73,30.24,10.0,Calm,Calm,-,N/A,,Clear,0,2012-12-06 01:15:00
8:35 PM,39.4,32.4,76,30.24,10.0,Calm,Calm,-,N/A,,Clear,0,2012-12-06 01:35:00
8:55 PM,39.7,32.2,74,30.24,10.0,Calm,Calm,-,N/A,,Clear,0,2012-12-06 01:55:00
9:15 PM,40.1,32.0,73,30.24,10.0,East,4.6,-,N/A,,Clear,100,2012-12-06 02:15:00
9:35 PM,38.8,32.0,76,30.23,10.0,Calm,Calm,-,N/A,,Clear,0,2012-12-06 02:35:00
10:15 PM,40.6,30.7,68,30.22,10.0,ESE,5.8,-,N/A,,Clear,110,2012-12-06 03:15:00
10:35 PM,37.0,31.1,79,30.22,10.0,East,4.6,-,N/A,,Clear,90,2012-12-06 03:35:00
10:55 PM,39.6,31.8,74,30.22,10.0,East,5.8,-,N/A,,Clear,90,2012-12-06 03:55:00
11:15 PM,41.9,32.2,68,30.22,10.0,ENE,6.9,-,N/A,,Clear,70,2012-12-06 04:15:00
11:35 PM,42.1,32.0,67,30.21,10.0,East,3.5,-,N/A,,Clear,80,2012-12-06 04:35:00
11:55 PM,37.9,31.8,79,30.21,10.0,East,6.9,-,N/A,,Clear,100,2012-12-06 04:55:00